Flag for Japan Weather past 2 weeks in Utsunomiya, Japan

Now
86 °F

Warm.


Feels Like: 95 °F
Forecast: 70 / 89 °F
Wind: 5 mph from South

Location: Mito

Current Time: Jul 31, 2014 at 12:02:26 PM

Latest Report: Jul 31, 2014 at 11:00 AM


Visibility: N/A

Pressure: 29.95 "Hg

Humidity: 70%

Dew point: 75 °F

Location of UtsunomiyaLocation

Historic Weather in Utsunomiya — Graph

°F

Utsunomiya temperature yesterday

Maximum temperature yesterday: 90 °F (at 3:00 PM)
Minimum temperature yesterday: 68 °F (at 5:00 AM)
Average temperature yesterday: 79 °F

Past Weeks' High & Low Weather Summary

 TemperatureHumidityPressure
High96 °F (Jul 27, 1:00 PM)98% (Jul 19, 6:00 AM)30.05 "Hg (Jul 19, 6:00 AM)
Low67 °F (Jul 22, 2:00 AM)47% (Jul 28, 2:00 PM)29.56 "Hg (Jul 27, 1:00 PM)
Average77 °F81%29.86 "Hg
* Reported Jul 16 10:00 AM — Jul 31 10:00 AM, Utsunomiya, Weather by CustomWeather, © 2014

Note: Actual official high and low records may vary slightly from our data, if they occured in-between our weather recording intervals... More about our weather records

Advertising

Utsunomiya weather history for previous 24 hours

 ConditionsComfort  
Time TempWeatherWind HumidityBarometerVisibility
10:00 AM
Jul 31
86 °FWarm.6 mph65%29.96 "HgN/A
9:00 AM83 °FFog.5 mph74%29.97 "Hg5 mi
8:00 AM80 °FWarm.2 mph82%29.97 "HgN/A
7:00 AM76 °FMild.3 mph89%29.99 "HgN/A
6:00 AM73 °FMild.2 mph94%29.98 "HgN/A
5:00 AM72 °FMild.2 mph96%29.98 "HgN/A
4:00 AM74 °FMild.3 mph94%29.97 "HgN/A
3:00 AM74 °FOvercast.3 mph94%29.96 "Hg6 mi
2:00 AM76 °FMild.2 mph92%29.96 "HgN/A
1:00 AM76 °FMild.3 mph90%29.96 "HgN/A
12:00 AM77 °FMild.3 mph88%29.98 "HgN/A
11:00 PM
Jul 30
77 °FWarm.5 mph86%29.99 "HgN/A
10:00 PM78 °FWarm.6 mph83%30.00 "HgN/A
9:00 PM78 °FPassing clouds.7 mph80%29.99 "Hg9 mi
8:00 PM80 °FWarm.7 mph75%29.98 "HgN/A
7:00 PM82 °FWarm.7 mph69%29.97 "HgN/A
6:00 PM84 °FWarm.7 mph66%29.97 "HgN/A
5:00 PM86 °FWarm.9 mph60%29.96 "HgN/A
4:00 PM89 °FHot.7 mph55%29.97 "HgN/A
3:00 PM90 °FScattered clouds.7 mph49%29.97 "Hg12 mi
2:00 PM89 °FHot.6 mph51%29.98 "HgN/A
1:00 PM87 °FWarm.6 mph54%30.00 "HgN/A
12:00 PM86 °FWarm.6 mph57%30.01 "HgN/A
Weather by CustomWeather, © 2014

See weather overviewHow to use our weather pages